Tracking 19909 objects as of 22-Oct-2019
HD Live streaming from Space Station
objects crossing your sky now

IRIDIUM 33 DEB


IRIDIUM 33 DEB is no longer on orbit


NORAD ID: 34867
Int'l Code: 1997-051MM
Perigee: N/A
Apogee: N/A
Inclination: N/A
Period: N/A
Semi major axis: N/A
RCS: N/A
Launch date: September 14, 1997
Source: United States (US)
Launch site: TYURATAM MISSILE AND SPACE COMPLEX (TTMTR)
Decay date: 2013-12-18

Note: This is SATELLITE DEBRIS
aabbcc
Your satellite tracking list
Your tracking list is empty




NASA's NSSDC Master Catalog

Two Line Element Set (TLE):
1 34867U 97051MM  13349.89701424  .02391644  33685-2  91979-2 0  9998
2 34867 086.1660 045.8678 0037617 187.3315 173.4448 15.87009691252441
Source of the keplerian elements: AFSPC